TIANMU-1 17

Last updated on Fri Jul 11 2025 00:02:21 GMT+0000 (Coordinated Universal Time)

1 58702U 24004C 25191.59335032 .00003260 00000+0 14416-3 0 9999 2 58702 97.4624 13.7609 0007224 116.1614 244.0365 15.22388560 83721
UTC large
Height (km)
Speed (km/s)
/
Latitude / Longitude
Inclination (degrees)
Orbital Period (minutes)
Azimuth
Elevation
Range (km)
Doppler Factor

Next 0 passes for location: London (51.5072 / 0.1276)

Sorry there are no passes over London.